DELTA 1 DEB, 7073

Orbit data source: Space-Track

DELTA 1 DEB, 7073 is space debris in SSO originally from a launch on Tue, 06 Nov 1973 UTC launched from the Air Force Western Test Range (AFWTR). Debris objects in space refer to the collection of defunct objects orbiting the Earth. Examples of debris include non-operational satellites, rocket bodies, and fragments generated from explosions, collisions, or faulty payload assembly.

Loading next visibility...
Identifier
7073, 1973-086BR
Orbit
SSO
Country
Flag of USUS
Related business
Manufacturer
Unknown
Mission
Spacecraft
Bus & Motor
Unknown
Mass
Unknown
Launch date (UTC)
1973-11-06 (52 years ago)
Launch vehicle
Unknown
Launch site
Air Force Western Test Range (AFWTR)
Object type
Payload
Rocket body
Debris
Shape & HBR
Unknown shape, 0.2 m
Radar Cross Section
Medium (>0.1 m² and <1 m²)

Expand to show TLE details & history
Last TLE update: 8 hours ago

TLE from 8 hours ago
0 DELTA 1 DEB
1 07073U 73086BR  26034.53500831 -.00000049  00000-0 -23320-4 0  9990
2 07073 102.5012   0.0972 0064306 255.0449 222.3803 12.28474955342462
Epoch: 2026-02-03T12:50Z
TLE epoch observation values (Epoch: 2026-02-03T12:50:24.717Z)
Latitude
60.59637°
Longitude
-123.17091°
Altitude
1,603.792 km
Speed
7.057 km/s
True Right ascension
13h 32m 35s
True Declination
60° 27' 53"
Sunlit
Object was in daylight at epoch
Visualization orbit readout
Latitude
Unknown
Longitude
Unknown
Altitude
Unknown
Speed
Unknown
Apparent Right ascension
Unknown
Apparent Declination
Unknown
Sunlit
N/A
Visualization observer readout
Local Sidereal Time
22:51:10
Azimuth
Unknown
Elevation
Unknown
Doppler factor
Unknown
Orbital elements
Apogee altitude
1,604.465 km
Perigee altitude
1,502.456 km
Semi-major axis
7,931.597 km
Eccentricity
0.00643
Inclination
102.5012°
RAAN
0.0972°
Arg. of periapsis
255.0449°
True anomaly
221.88654°
Mean anomaly
222.3803°
Eccentric anomaly
222.13313°
Mean motion
3.07257 °/min
Orbital period
117.17 mins
BSTAR
-0.00002332
Loading maneuver chart data...
Computing Atmospheric mass density...
Loading historical data...
Loading historical data...
Loading historical data...
Loading historical data...
Loading historical data...
Loading historical data...
Loading historical data...

Documentation

Showing up to 5 results
|